Flag for U.S.A. Weather past 2 weeks in Gainesville, Florida, U.S.A.

Now
81 °F

Passing clouds.


Feels Like: 82 °F
Forecast: 61 / 80 °F
Wind: 14 mph from Northwest

Location: Gainesville Regional Airport

Current Time: Apr 1, 2015 at 2:30:27 PM

Latest Report: Apr 1, 2015 at 1:53 PM


Visibility: 10 mi

Pressure: 30.06 "Hg

Humidity: 51%

Dew point: 61 °F

Location of GainesvilleLocation

Historic Weather in Gainesville — Graph

°F

Gainesville temperature yesterday

Maximum temperature yesterday: 81 °F (at 4:53 PM)
Minimum temperature yesterday: 57 °F (at 3:53 AM)
Average temperature yesterday: 68 °F

Past Weeks' High & Low Weather Summary

 TemperatureHumidityPressure
High86 °F (Mar 17, 3:53 PM)100% (Mar 18, 3:53 AM)30.40 "Hg (Mar 18, 3:53 AM)
Low39 °F (Mar 29, 3:53 AM)22% (Mar 29, 5:53 PM)29.75 "Hg (Mar 27, 5:00 PM)
Average66 °F77%30.05 "Hg
* Reported Mar 17 12:53 PM — Apr 1 12:53 PM, Gainesville, Weather by CustomWeather, © 2015

Note: Actual official high and low records may vary slightly from our data, if they occured in-between our weather recording intervals... More about our weather records

Advertising

Gainesville weather history for previous 24 hours

 ConditionsComfort  
Time TempWeatherWind HumidityBarometerVisibility
12:53 PM
Wed, Apr 1
79 °FPassing clouds.12 mph54%30.08 "Hg10 mi
11:53 AM76 °FPartly sunny.18 mph62%30.10 "Hg10 mi
11:00 AM74 °FBroken clouds.14 mph71%30.11 "Hg10 mi
9:53 AM69 °FBroken clouds.13 mph87%30.11 "Hg10 mi
8:53 AM66 °FMostly cloudy.9 mph93%30.10 "Hg9 mi
7:53 AM65 °FPartly cloudy.9 mph94%30.09 "Hg8 mi
6:53 AM64 °FPassing clouds.8 mph97%30.06 "Hg9 mi
5:53 AM64 °FClear.8 mph97%30.04 "Hg10 mi
4:53 AM65 °FPassing clouds.9 mph94%30.03 "Hg10 mi
4:01 AM66 °FPassing clouds.9 mph90%30.04 "Hg10 mi
2:53 AM66 °FPassing clouds.10 mph93%30.05 "Hg10 mi
1:53 AM66 °FPassing clouds.14 mph93%30.07 "Hg10 mi
12:53 AM66 °FPassing clouds.10 mph90%30.09 "Hg10 mi
11:53 PM
Tue, Mar 31
66 °FClear.13 mph90%30.08 "Hg10 mi
10:53 PM66 °FClear.12 mph87%30.07 "Hg10 mi
9:53 PM67 °FClear.13 mph79%30.06 "Hg10 mi
8:53 PM70 °FClear.13 mph71%30.04 "Hg10 mi
7:53 PM72 °FSunny.9 mph66%30.03 "Hg10 mi
6:53 PM76 °FSunny.15 mph56%30.02 "Hg10 mi
5:53 PM79 °FPassing clouds.17 mph48%30.01 "Hg10 mi
4:53 PM81 °FPassing clouds.16 mph44%30.01 "Hg10 mi
3:53 PM79 °FPartly sunny.7 mph54%30.03 "Hg10 mi
2:53 PM80 °FScattered clouds.9 mph52%30.06 "Hg10 mi
Weather by CustomWeather, © 2015

See weather overviewHow to use our weather pages